When you browse on this site, cookies collect data to enhance your experience and personalize the content and advertising you see.
Visit our Privacy Policy to learn more. By continuing to use the site, you agree to this use of cookies and data.
  • In Hungary
  • List of Countries
  • For 7 days
  • Water Temperature
  • Satellite Maps
  • Weather Map
  • News
  • Weather Widgets
  • user-avatar
    Login

    Hourly Weather Corroios

    Today, 22 July, Monday

    Time Temperature Precipitation Wind Pressure Humidity
    00:00 +18°C° 0 mm 3 mps 761 mmHg 81%
    01:00 +18°C° 0 mm 3 mps 761 mmHg 83%
    02:00 +18°C° 0 mm 2 mps 760 mmHg 85%
    03:00 +18°C° 0 mm 2 mps 760 mmHg 85%
    04:00 +18°C° 0 mm 2 mps 760 mmHg 86%
    05:00 +18°C° 0 mm 2 mps 761 mmHg 86%
    06:00 +20°C° 0 mm 2 mps 761 mmHg 77%
    07:00 +24°C° 0 mm 2 mps 761 mmHg 67%
    08:00 +26°C° 0 mm 2 mps 761 mmHg 57%
    09:00 +28°C° 0 mm 3 mps 761 mmHg 52%
    10:00 +30°C° 0 mm 3 mps 761 mmHg 46%
    11:00 +32°C° 0 mm 4 mps 760 mmHg 41%
    12:00 +33°C° 0 mm 4 mps 760 mmHg 39%
    13:00 +33°C° 0 mm 5 mps 760 mmHg 38%
    14:00 +34°C° 0 mm 5 mps 760 mmHg 36%
    15:00 +33°C° 0 mm 5 mps 759 mmHg 40%
    16:00 +30°C° 0 mm 5 mps 759 mmHg 44%
    17:00 +29°C° 0 mm 6 mps 759 mmHg 49%
    18:00 +27°C° 0 mm 6 mps 759 mmHg 58%
    19:00 +24°C° 0 mm 6 mps 759 mmHg 67%
    20:00 +22°C° 0 mm 6 mps 759 mmHg 76%
    21:00 +21°C° 0 mm 5 mps 759 mmHg 79%
    22:00 +20°C° 0 mm 4 mps 759 mmHg 83%
    23:00 +20°C° 0 mm 3 mps 759 mmHg 86%

    Tomorrow, 23 July, Tuesday

    Time Temperature Precipitation Wind Pressure Humidity
    00:00 +19°C° 0 mm 2 mps 759 mmHg 87%
    01:00 +19°C° 0 mm 2 mps 759 mmHg 87%
    02:00 +19°C° 0 mm 2 mps 759 mmHg 88%
    03:00 +19°C° 0 mm 3 mps 759 mmHg 89%
    04:00 +19°C° 0 mm 3 mps 759 mmHg 90%
    05:00 +19°C° 0 mm 4 mps 758 mmHg 91%
    06:00 +20°C° 0 mm 4 mps 759 mmHg 82%
    07:00 +22°C° 0 mm 3 mps 759 mmHg 74%
    08:00 +25°C° 0 mm 3 mps 759 mmHg 65%
    09:00 +27°C° 0 mm 3 mps 759 mmHg 56%
    10:00 +29°C° 0 mm 4 mps 759 mmHg 48%
    11:00 +33°C° 0 mm 4 mps 759 mmHg 39%
    12:00 +33°C° 0 mm 5 mps 759 mmHg 39%
    13:00 +32°C° 0 mm 6 mps 759 mmHg 39%
    14:00 +32°C° 0 mm 7 mps 758 mmHg 38%
    15:00 +30°C° 0 mm 7 mps 758 mmHg 42%
    16:00 +29°C° 0 mm 7 mps 758 mmHg 45%
    17:00 +27°C° 0 mm 7 mps 758 mmHg 49%
    18:00 +26°C° 0 mm 6 mps 758 mmHg 54%
    19:00 +23°C° 0 mm 6 mps 758 mmHg 59%
    20:00 +22°C° 0 mm 5 mps 759 mmHg 64%
    21:00 +21°C° 0 mm 4 mps 758 mmHg 67%
    22:00 +20°C° 0 mm 4 mps 758 mmHg 70%
    23:00 +20°C° 0 mm 3 mps 758 mmHg 74%

    Day after tomorrow, 24 July, Wednesday

    Time Temperature Precipitation Wind Pressure Humidity
    00:00 +19°C° 0 mm 3 mps 758 mmHg 76%
    01:00 +19°C° 0 mm 2 mps 758 mmHg 78%
    02:00 +19°C° 0 mm 2 mps 757 mmHg 79%
    03:00 +19°C° 0 mm 2 mps 757 mmHg 80%
    04:00 +19°C° 0 mm 2 mps 757 mmHg 81%
    05:00 +18°C° 0 mm 2 mps 757 mmHg 82%
    06:00 +21°C° 0 mm 2 mps 757 mmHg 71%
    07:00 +24°C° 0 mm 2 mps 757 mmHg 59%
    08:00 +27°C° 0 mm 2 mps 758 mmHg 48%
    09:00 +29°C° 0 mm 3 mps 757 mmHg 42%
    10:00 +31°C° 0 mm 3 mps 757 mmHg 36%
    11:00 +34°C° 0 mm 3 mps 757 mmHg 31%
    12:00 +33°C° 0 mm 4 mps 757 mmHg 30%
    13:00 +33°C° 0 mm 4 mps 756 mmHg 30%
    14:00 +33°C° 0 mm 5 mps 756 mmHg 29%
    15:00 +32°C° 0 mm 5 mps 756 mmHg 39%
    16:00 +29°C° 0 mm 5 mps 756 mmHg 48%
    17:00 +27°C° 0 mm 5 mps 756 mmHg 58%
    18:00 +26°C° 0 mm 5 mps 757 mmHg 68%
    19:00 +23°C° 0 mm 4 mps 757 mmHg 77%
    20:00 +21°C° 0 mm 3 mps 757 mmHg 87%
    21:00 +21°C° 0 mm 2 mps 757 mmHg 89%
    22:00 +21°C° 0 mm 2 mps 757 mmHg 90%
    23:00 +22°C° 0 mm 1 mps 757 mmHg 92%

    25 July, Thursday

    Time Temperature Precipitation Wind Pressure Humidity
    00:00 +22°C° 0 mm 1 mps 757 mmHg 92%
    01:00 +21°C° 0 mm 2 mps 757 mmHg 93%
    02:00 +21°C° 0 mm 2 mps 757 mmHg 94%
    03:00 +21°C° 0 mm 2 mps 757 mmHg 93%
    04:00 +21°C° 0 mm 2 mps 757 mmHg 92%
    05:00 +21°C° 0 mm 2 mps 757 mmHg 92%
    06:00 +23°C° 0 mm 2 mps 758 mmHg 84%
    07:00 +24°C° 0 mm 2 mps 758 mmHg 76%
    08:00 +25°C° 0 mm 2 mps 758 mmHg 68%
    09:00 +27°C° 0 mm 3 mps 758 mmHg 63%
    10:00 +28°C° 0 mm 3 mps 758 mmHg 58%
    11:00 +29°C° 0 mm 4 mps 758 mmHg 53%
    12:00 +29°C° 0 mm 4 mps 758 mmHg 55%
    13:00 +29°C° 0 mm 5 mps 758 mmHg 56%
    14:00 +29°C° 0 mm 5 mps 758 mmHg 58%
    15:00 +28°C° 0 mm 6 mps 758 mmHg 58%
    16:00 +27°C° 0 mm 6 mps 759 mmHg 58%
    17:00 +26°C° 0 mm 6 mps 759 mmHg 58%
    18:00 +24°C° 0 mm 6 mps 759 mmHg 64%
    19:00 +22°C° 0 mm 6 mps 760 mmHg 70%
    20:00 +21°C° 0 mm 6 mps 760 mmHg 75%
    21:00 +20°C° 0 mm 5 mps 760 mmHg 77%
    22:00 +20°C° 0 mm 5 mps 760 mmHg 78%
    23:00 +19°C° 0 mm 5 mps 760 mmHg 80%

    26 July, Friday

    Time Temperature Precipitation Wind Pressure Humidity
    00:00 +19°C° 0 mm 4 mps 760 mmHg 82%
    01:00 +18°C° 0 mm 4 mps 760 mmHg 85%
    02:00 +18°C° 0 mm 4 mps 760 mmHg 87%
    03:00 +18°C° 0 mm 4 mps 760 mmHg 88%
    04:00 +18°C° 0 mm 4 mps 761 mmHg 88%
    05:00 +18°C° 0 mm 4 mps 761 mmHg 89%
    06:00 +19°C° 0 mm 5 mps 761 mmHg 78%
    07:00 +21°C° 0 mm 5 mps 761 mmHg 68%
    08:00 +22°C° 0 mm 6 mps 762 mmHg 58%
    09:00 +24°C° 0 mm 6 mps 762 mmHg 51%
    10:00 +26°C° 0 mm 7 mps 761 mmHg 45%
    11:00 +28°C° 0 mm 7 mps 761 mmHg 39%
    12:00 +28°C° 0 mm 8 mps 761 mmHg 39%
    13:00 +28°C° 0 mm 8 mps 761 mmHg 39%
    14:00 +28°C° 0 mm 8 mps 761 mmHg 39%
    15:00 +27°C° 0 mm 8 mps 761 mmHg 42%
    16:00 +26°C° 0 mm 8 mps 761 mmHg 44%
    17:00 +24°C° 0 mm 8 mps 761 mmHg 47%
    18:00 +22°C° 0 mm 8 mps 761 mmHg 53%
    19:00 +21°C° 0 mm 8 mps 761 mmHg 60%
    20:00 +18°C° 0 mm 7 mps 762 mmHg 66%
    21:00 +18°C° 0 mm 7 mps 762 mmHg 69%
    22:00 +18°C° 0 mm 7 mps 762 mmHg 73%
    23:00 +17°C° 0 mm 6 mps 762 mmHg 76%

    27 July, Saturday

    Time Temperature Precipitation Wind Pressure Humidity
    00:00 +17°C° 0 mm 6 mps 761 mmHg 77%
    01:00 +17°C° 0 mm 6 mps 761 mmHg 77%
    02:00 +17°C° 0 mm 5 mps 761 mmHg 78%
    03:00 +17°C° 0 mm 5 mps 761 mmHg 79%
    04:00 +17°C° 0 mm 5 mps 761 mmHg 80%
    05:00 +17°C° 0 mm 5 mps 761 mmHg 82%
    06:00 +20°C° 0 mm 5 mps 761 mmHg 71%
    07:00 +21°C° 0 mm 5 mps 761 mmHg 61%
    08:00 +23°C° 0 mm 5 mps 761 mmHg 51%
    09:00 +26°C° 0 mm 6 mps 761 mmHg 46%
    10:00 +28°C° 0 mm 6 mps 761 mmHg 40%
    11:00 +30°C° 0 mm 6 mps 761 mmHg 35%
    12:00 +30°C° 0 mm 7 mps 760 mmHg 36%
    13:00 +30°C° 0 mm 7 mps 760 mmHg 36%
    14:00 +31°C° 0 mm 8 mps 759 mmHg 36%
    15:00 +29°C° 0 mm 8 mps 759 mmHg 41%
    16:00 +27°C° 0 mm 8 mps 759 mmHg 46%
    17:00 +26°C° 0 mm 8 mps 759 mmHg 51%
    18:00 +24°C° 0 mm 7 mps 759 mmHg 59%
    19:00 +22°C° 0 mm 6 mps 760 mmHg 68%
    20:00 +21°C° 0 mm 5 mps 760 mmHg 76%
    21:00 +20°C° 0 mm 5 mps 760 mmHg 80%
    22:00 +20°C° 0 mm 4 mps 760 mmHg 85%
    23:00 +19°C° 0 mm 4 mps 760 mmHg 89%
    Show more